Location: Tel Aviv
(32.0670°N, 34.7670°E)
Time: 22:51:34
(UTC+02:00)

deb Explorer IX - Visible Passes

Search period start: 25 January 2022 00:00
Search period end: 04 February 2022 00:00
Orbit: 544 x 1082 km, 38.8° (Epoch: 24 January)

Date Brightness Start Highest point End Pass type
(mag) Time Alt. Az. Time Alt. Az. Time Alt. Az.
25 Jan ? 19:04:23 10° W 19:07:23 18° SW 19:10:25 11° S visible
26 Jan ? 18:38:38 10° W 18:41:34 18° SW 18:44:42 10° S visible
27 Jan ? 18:12:52 10° W 18:15:45 18° SW 18:18:48 10° S visible
28 Jan ? 17:47:03 10° W 17:49:57 18° SW 17:52:56 10° S visible
